Regional Weather Roundup
Issued by NWS

Home | Current Version | Previous Version | Graphics & Text | Print | Product List | Glossary On
Versions: 1 2 3 4 5 6 7 8 9 10 11 12 13 14 15 16 17 18 19 20 21 22 23 24 25 26 27 28 29 30 31 32 33 34 35 36 37 38 39 40 41 42 43 44 45 46 47 48 49 50
000
ASUS43 KTOP 141308
RWRKS

WEATHER ROUNDUP FOR KANSAS
NATIONAL WEATHER SERVICE GOODLAND KS
700 AM CST SUN FEB 14 2016

NOTE:  "FAIR" INDICATES FEW OR NO CLOUDS BELOW 12,000 FEET WITH NO
SIGNIFICANT WEATHER AND/OR OBSTRUCTIONS TO VISIBILITY.

KSZ001>006-013>018-027>032-041>047-141400-
NORTHWEST KANSAS

CITY           SKY/WX    TMP DP  RH WIND       PRES   REMARKS
GOODLAND       CLOUDY    26  21  81 W9        29.98S
HAYS           CLEAR     23  12  63 W8        29.97S
HILL CITY      CLEAR     33  26  75 W9        29.97S
RUSSELL        CLOUDY    20  15  81 SW8       29.96F
$$

KSZ061>065-074>080-084>089-141400-
SOUTHWEST KANSAS

CITY           SKY/WX    TMP DP  RH WIND       PRES   REMARKS
DODGE CITY     CLOUDY    27  23  85 NW8       29.98R
ELKHART          N/A     32  22  67 NW7         N/A
GARDEN CITY    CLEAR     26  23  88 NW10      29.99S WCI  16
GREAT BEND     CLOUDY    18   9  68 W6        29.98F
LIBERAL        CLOUDY    32  25  74 N14       29.99F WCI  22
PRATT          CLOUDY    18  11  75 N5        29.98S
$$

KSZ066>073-081>083-090>101-141400-
SOUTHEAST KANSAS

CITY           SKY/WX    TMP DP  RH WIND       PRES   REMARKS
CHANUTE        CLOUDY    35  16  45 SE7       29.99F
COFFEYVILLE    CLOUDY    38  21  50 E6        30.01F
HUTCHINSON     CLOUDY    20  11  68 CALM      29.99S
MEDICINE LODGE   N/A     24  15  68 N8        29.98S
NEWTON         CLOUDY    18   7  62 SE6       29.98F
PARSONS        CLOUDY    38  20  48 CALM      30.01F
WICHITA INTL   CLOUDY    25  11  55 NE3       29.99F
WICHITA JABRA  CLOUDY    21  10  62 E3        29.99F
WICHITA MCCONL CLOUDY    21  11  64 N6        29.99F
WINFIELD       CLOUDY    30  19  63 N8        30.01R
$$

KSZ007>012-019>026-033>040-048>060-102>105-141400-
NORTHEAST KANSAS

CITY           SKY/WX    TMP DP  RH WIND       PRES   REMARKS
CONCORDIA      CLEAR     20   9  62 SW10      29.95F WCI   9
EMPORIA        CLOUDY    21  11  65 CALM      30.00F
LAWRENCE       CLEAR     20  11  68 SE3       30.02F
MANHATTAN      CLEAR     16   9  74 CALM      29.98F
MARYSVILLE     CLEAR     18  10  73 S6        29.95F
OLATHE IND     CLOUDY    24  18  77 SE5       30.00F
OLATHE EXE     CLOUDY    24  18  77 SE7       30.00F
SALINA         CLOUDY    19  11  70 W6        30.00S
TOPEKA BILLARD CLEAR     21   8  57 CALM      30.01F
TOPEKA FORBES  CLEAR     20  11  68 S3        29.99F
$$



USA.gov is the U.S. government's official web portal to all federal, state and local government web resources and services.